Location: Seattle
(47.6064°N, 122.3308°W)
Time: 11:24:39
(UTC-07:00)

Explorer 7 - Pass Details

Date: 09 August 2021
Orbit: 484 x 676 km, 50.3° (Epoch: 22 September)

Event Time Altitude Azimuth Distance (km) Brightness Sun altitude
Exits shadow 03:33:31 54° 166° (SSE) 596 6.7 -19.5°
Maximum altitude 03:33:42 55° 152° (SSE) 590 6.7 -19.5°
Drops below altitude 10° 03:37:25 10° 74° (ENE) 1,687 10.0 -19.1°
Sets 03:39:39 0° 70° (ENE) 2,590 11.2 -18.9°
